{"data":{"norad_id":38250,"epoch":"2026-05-24T13:30:03.625344Z","epoch_age_seconds":106091,"freshness":"FRESH","line1":"1 38250U 12018A   26144.56254196 -.00000081  00000+0  00000+0 0  9993","line2":"2 38250  55.7786 305.6708 0019723 275.7368  84.0185  1.86229567 95508","mean_motion":1.86229567,"eccentricity":0.0019723,"inclination_deg":55.7786,"raan_deg":305.6708,"arg_perigee_deg":275.7368,"mean_anomaly_deg":84.0185,"bstar":0,"rev_number":9550,"period_min":773.239192464,"perigee_km":21473.155060751,"apogee_km":21583.234376849,"semimajor_km":27906.3317188,"source":"CELESTRAK","updated_at":"2026-05-25T13:38:24.211263Z"}}